SDM6174 UWOO-UUEE

Flight info

Callsign SDM6174
Flight time N/A
Altitude 36000
Route N0460F360 PIMAM M162 PODUT T750 OKSUD T787 OTKOL T784 LARNO T291 URIDU L158 DIMGI
Aircraft A319/M-VGDW/C

Departure

Time 2026-04-28 10:48
Airport Orenburg Central Airport (UWOO)

Arrival

Time N/A
Airport Sheremetyevo International Airport (UUEE)
Time Latitude Longitude Altitude Speed Heading
2026-04-28 10:20 51.79228 55.45598 381 ft 0 kts 180°
2026-04-28 10:40 51.79224 55.45598 381 ft 1 kts 180°
2026-04-28 10:40 51.79216 55.45606 381 ft 1 kts 133°
2026-04-28 10:40 51.79214 55.45624 381 ft 2 kts 97°
2026-04-28 10:40 51.79215 55.45651 381 ft 3 kts 82°
2026-04-28 10:41 51.79225 55.45681 381 ft 3 kts 51°
2026-04-28 10:41 51.79245 55.45697 381 ft 3 kts 13°
2026-04-28 10:41 51.79266 55.45702 381 ft 3 kts
2026-04-28 10:41 51.79288 55.45707 381 ft 3 kts
2026-04-28 10:42 51.79309 55.45712 382 ft 3 kts
2026-04-28 10:42 51.79331 55.45717 382 ft 3 kts
2026-04-28 10:42 51.79354 55.45719 382 ft 3 kts
2026-04-28 10:42 51.79377 55.45719 382 ft 3 kts
2026-04-28 10:43 51.79402 55.45720 382 ft 4 kts
2026-04-28 10:43 51.79441 55.45721 383 ft 8 kts
2026-04-28 10:43 51.79509 55.45722 382 ft 12 kts
2026-04-28 10:43 51.79580 55.45647 381 ft 15 kts 272°
2026-04-28 10:44 51.79581 55.45454 382 ft 19 kts 270°
2026-04-28 10:44 51.79580 55.45221 382 ft 23 kts 269°
2026-04-28 10:44 51.79579 55.44946 384 ft 26 kts 271°
2026-04-28 10:44 51.79580 55.44632 383 ft 30 kts 270°
2026-04-28 10:45 51.79581 55.44285 383 ft 31 kts 269°
2026-04-28 10:45 51.79571 55.43990 382 ft 19 kts 246°
2026-04-28 10:45 51.79557 55.43902 382 ft 2 kts
2026-04-28 10:45 51.79574 55.43937 382 ft 5 kts 70°
2026-04-28 10:46 51.79579 55.43997 382 ft 6 kts 89°
2026-04-28 10:46 51.79579 55.44010 382 ft 0 kts 89°
2026-04-28 10:47 51.79579 55.44012 382 ft 0 kts 89°
2026-04-28 10:47 51.79580 55.44201 382 ft 55 kts 89°
2026-04-28 10:47 51.79578 55.45230 383 ft 125 kts 90°
2026-04-28 10:48 51.79565 55.46928 429 ft 172 kts 93°
2026-04-28 10:48 51.79564 55.48957 865 ft 187 kts 93°
2026-04-28 10:48 51.79556 55.51160 1374 ft 205 kts 93°
2026-04-28 10:48 51.79554 55.53427 2337 ft 195 kts 92°
2026-04-28 10:49 51.79609 55.55639 3065 ft 204 kts 91°
2026-04-28 10:49 51.79647 55.58024 3654 ft 221 kts 94°
2026-04-28 10:49 51.79698 55.60570 4303 ft 238 kts 82°
2026-04-28 10:49 51.80528 55.63010 4752 ft 266 kts 41°
2026-04-28 10:50 51.82226 55.64295 5397 ft 279 kts
2026-04-28 10:50 51.83495 55.64147 5998 ft 277 kts 339°
2026-04-28 10:50 51.85417 55.61717 7264 ft 266 kts 292°
2026-04-28 10:50 51.85813 55.59834 7917 ft 261 kts 275°
2026-04-28 10:51 51.85974 55.56950 8981 ft 256 kts 265°
2026-04-28 10:51 51.85981 55.54066 10065 ft 256 kts 263°
2026-04-28 10:51 51.86013 55.50091 10773 ft 282 kts 265°
2026-04-28 10:51 51.86117 55.46852 11431 ft 293 kts 268°
2026-04-28 10:52 51.86230 55.44621 12006 ft 296 kts 269°
2026-04-28 10:52 51.86449 55.41292 12901 ft 299 kts 270°
2026-04-28 10:52 51.86700 55.37940 13787 ft 302 kts 270°
2026-04-28 10:52 51.86968 55.34556 14560 ft 305 kts 271°
2026-04-28 10:53 51.87246 55.31144 15301 ft 308 kts 270°
2026-04-28 10:53 51.87535 55.27689 16029 ft 312 kts 272°
2026-04-28 10:53 51.88141 55.24258 16738 ft 326 kts 284°
2026-04-28 10:53 51.89320 55.21015 17444 ft 343 kts 298°
2026-04-28 10:54 51.90885 55.18033 18145 ft 350 kts 301°
2026-04-28 10:54 51.92479 55.15026 18779 ft 353 kts 301°
2026-04-28 10:54 51.94085 55.11986 19382 ft 357 kts 300°
2026-04-28 10:54 51.95703 55.08912 19985 ft 360 kts 300°
2026-04-28 10:55 51.97315 55.05834 20587 ft 364 kts 300°
2026-04-28 10:55 51.98982 55.02644 21192 ft 368 kts 300°
2026-04-28 10:55 52.00618 54.99512 21780 ft 371 kts 300°
2026-04-28 10:55 52.02298 54.96290 22369 ft 375 kts 300°
2026-04-28 10:56 52.03989 54.93045 22955 ft 379 kts 300°
2026-04-28 10:56 52.05698 54.89762 23536 ft 382 kts 300°
2026-04-28 10:56 52.07413 54.86437 24034 ft 385 kts 299°
2026-04-28 10:56 52.09075 54.83019 24523 ft 386 kts 297°
2026-04-28 10:57 52.10694 54.79524 25001 ft 388 kts 296°
2026-04-28 10:57 52.12294 54.75983 25483 ft 390 kts 296°
2026-04-28 10:57 52.13904 54.72409 25945 ft 393 kts 296°
2026-04-28 10:57 52.15530 54.68811 26412 ft 396 kts 296°
2026-04-28 10:58 52.17177 54.65195 26874 ft 399 kts 296°
2026-04-28 10:58 52.18846 54.61555 27311 ft 402 kts 296°
2026-04-28 10:58 52.20532 54.57893 27748 ft 405 kts 296°
2026-04-28 10:58 52.22229 54.54206 28188 ft 408 kts 296°
2026-04-28 10:59 52.23940 54.50482 28631 ft 411 kts 296°
2026-04-28 10:59 52.25656 54.46729 29050 ft 414 kts 296°
2026-04-28 10:59 52.27382 54.42940 29467 ft 417 kts 296°
2026-04-28 10:59 52.29121 54.39123 29864 ft 420 kts 296°
2026-04-28 11:00 52.30870 54.35281 30235 ft 423 kts 296°
2026-04-28 11:00 52.32431 54.31263 30553 ft 415 kts 288°
2026-04-28 11:00 52.33744 54.27065 30886 ft 416 kts 287°
2026-04-28 11:00 52.34613 54.24266 31133 ft 416 kts 287°